www.pogodaiklimat.ru

Погода и климат >> Архив погоды >> Россия >> Хабаровский край >> Джаоре


ПОГОДА в Джаоре

  • Прогноз погоды в Джаоре
  • Монитор погоды в Джаоре

АРХИВ ПОГОДЫ в Джаоре

Время (UTC), дата Ветер
(напр.,м/с)
 
Видим.   Явления Облачность Т
(С)
Тd
(С)
f
(%)
Тe
(С)
Тes
(С)
Комфортность P
(гПа)
Po
(гПа)
Тmin
(С)
Tmax
(С)
R
(мм)
R24
(мм)
S
(см)
12 9.09 З 2 20 км 10/10 600 м
[Cb cap]
+10.4 +8.3 87 +9 +9 1008.9 1003.3
15 9.09 СЗ 1 20 км 10/4 600 м
[Cb cap Ac trans Ci fib]
+7.8 +6.4 91 +7 +7 1004.8 1004.2
21 9.09 СЗ 2 20 км 10/10 600 м
[Cb cap]
+9.5 +7.1 85 +8 +8 1006.9 1006.3 +6.3
00 10.09 СЗ 3 20 км 10/10 600 м
[Cb cap]
+12.4 +8.5 77 +11 +11 1008.3 1007.7
03 10.09 СЗ 3 20 км 10/6 600 м
[Cb cap Cs]
+14.7 +7.5 62 +14 +16 1009.2 1008.6
06 10.09 СЗ 3 20 км {ливн. осадки} 10/8 600 м
[Cb cap Ci ing]
+16.6 +6.7 52 +16 +17 1009.6 1009.0
09 10.09 З 2 20 км 6/6 600 м
[Cb cap]
+13.4 +7.5 67 +13 +13 1011.5 1010.9 +16.6 0.3
12 10.09 З 2 20 км 4/4 600 м
[Sc]
+10.3 +6.7 78 +9 +9 1013.3 1012.7
15 10.09 ЮЗ 3 н/о н/о +9.1 +4.7 74 +7 +7 1013.0 1012.4
18 10.09 ЮЗ 3 20 км 4/4 600 м
[Sc]
+10.0 +5.5 74 +8 +8 1013.1 1012.5
21 10.09 З 2 20 км ясно +10.8 +6.0 72 +10 +10 1013.8 1013.2 +6.2
00 11.09 З 3 20 км ясно +17.5 +7.1 50 +18 +22 1013.9 1013.3
03 11.09 СВ 1 50 км 3/3 600 м
[Sc]
+19.5 +9.3 52 +22 +29 комфорт 1013.2 1012.6
06 11.09 В 1 20 км 6/6 600 м
[Cb cap]
+17.8 +11.4 66 +19 +21 1013.0 1012.4
09 11.09 штиль 0 20 км 3/3 600 м
[Sc]
+12.0 +9.4 84 +11 +11 1014.0 1013.4 +20.1
12 11.09 ЮЗ 1 20 км 6/6 600 м
[Sc]
+8.3 +7.3 93 +7 +7 1014.8 1014.2
15 11.09 ЮЗ 2 20 км 6/6 600 м
[Sc]
+6.9 +6.2 95 +5 +5 1015.0 1014.4
21 11.09 ЮЗ 2 10 км в посл. час туман ясно +5.9 +5.2 95 +3 +3 1015.7 1015.0 +2.8
06 12.09 В 2 50 км 4/4 600 м
[Cu Sc]
+17.7 +10.5 63 +18 +20 1014.6 1014.0
09 12.09 Ю 1 н/о н/о +11.8 +10.0 89 +12 +12 1014.8 1014.2 +17.7
12 12.09 Ю 2 20 км 4/4 600 м
[Sc]
+8.6 +7.5 93 +7 +7 1015.5 1014.9
15 12.09 Ю 2 20 км 4/4 600 м
[Sc]
+7.9 +6.9 93 +6 +6 1014.6 1014.0
18 12.09 Ю 3 20 км 4/4 600 м
[Sc]
+7.2 +5.9 91 +4 +4 1014.2 1013.6
21 12.09 Ю 3 20 км 4/3 600 м
[Sc Ci fib]
+8.0 +6.4 90 +5 +5 1014.5 1013.9 +6.4
00 13.09 ЮВ 3 20 км 4/0
[Ac As Ci fib]
+16.4 +10.6 69 +16 +20 1013.8 1013.2
03 13.09 Ю 6
{10}
20 км 10/3 600 м
[Sc Ci fib]
+18.8 +12.2 65 +19 +21 1012.0 1011.4
06 13.09 ЮВ 5-10
{11}
20 км 10/0
[Ci fib]
+18.4 +12.8 70 +18 +20 1009.7 1009.1
09 13.09 Ю 4
{11}
20 км 8/3 600 м
[Sc Ci fib]
+16.0 +11.9 77 +15 +15 1008.6 1008.0 +19.3
12 13.09 Ю 4
{11}
20 км 10/0
[Ac trans Ci fib]
+15.5 +11.3 76 +15 +15 1006.7 1006.1
15 13.09 Ю 5
{11}
20 км 10/0
[Ac trans Ci fib]
+15.5 +11.9 79 +14 +14 1004.2 1003.6
18 13.09 Ю 5 20 км 10/10 600 м
[Sc]
+15.5 +12.6 83 +14 +14 1001.9 1001.3
21 13.09 Ю 4
{10}
20 км 10/6 600 м
[Sc As trans]
+15.4 +12.7 84 +14 +14 1000.4 999.9 +14.6
00 14.09 Ю 3 10 км слаб. дождь 10/0
[Ac As]
+15.9 +13.0 83 +15 +17 998.3 997.7
03 14.09 Ю 2 10 км 10/10 600 м
[Cb cap]
+15.2 +14.0 93 +15 +15 996.1 995.5
06 14.09 З 3 10 км {ливн. осадки} 8/8 600 м
[Cb cap]
+18.0 +11.5 66 +18 +19 996.6 996.1
09 14.09 З 2
{10}
10 км 8/6 600 м
[Cb cap Ac trans]
+12.7 +6.9 68 +12 +12 1001.2 1000.6 +19.4 0.4
12 14.09 ЮЗ 2 10 км 1/1 600 м
[Sc diur, vesp]
+10.5 +3.2 61 +9 +9 1004.0 1003.4
15 14.09 СЗ 2 20 км 1/1 600 м
[Sc diur, vesp]
+5.2 -4.1 51 +3 +3 1004.5 1003.8
21 14.09 ЮЗ 2 20 км ясно +7.6 +3.0 73 +6 +6 1007.6 1007.0 +5.2
03 15.09 З 5-10
{11}
20 км ясно +18.7 -0.4 28 +18 +23 1008.3 1007.7
09 15.09 ЮЗ 1 20 км 8/3 600 м
[Sc Ac trans Ci fib]
+13.3 +5.9 61 +14 +14 1008.3 1007.7 +19.5
21 15.09 Ю 3 20 км 8/0
[Ac trans Ci fib]
+11.6 +10.2 91 +10 +10 1006.3 1005.7 +8.9
06 16.09 З 2
{12}
20 км в посл. час гроза {ливн. осадки} 10/10 600 м
[Cb cap]
+13.5 +11.5 88 +13 +13 1004.6 1004.0

 

Местоположение метеостанции Джаоре (Хабаровский край, Россия): широта 52.67 долгота 141.20 высота над уровнем моря 5 м.

В архиве по умолчанию представлена погода в Джаоре за последнюю неделю. Архивные данные за месяц целиком и за предыдущие месяцы, начиная с января 2011 года, Вы можете получить, выбрав интересующий диапазон дат из раскрывающегося списка и нажав кнопку "Ввод!".


*Определитесь, кто Вы:
робот инопланетянин человек

Внимание! Время в таблицах - всемирное. Для получения местного времени необходимо прибавить поправку, которая равна 10 ч.

Смотрите также архив погоды в соседних городах и на ближайших метеорологических станциях:

Погода в Погибях (Сахалинская область, Россия) (57 км)
Погода в Богородском (Хабаровский край, Россия) (63 км)
Погода в Николаевск-на-Амуре (Хабаровский край, Россия) (63 км)
Погода в Байдукове (Хабаровский край, Россия) (71 км)
Погода в Вале (Сахалинская область, Россия) (128 км)
Погода в Мариинском (Хабаровский край, Россия) (129 км)
Погода в Москальво (Сахалинская область, Россия) (132 км)
Погода в Оха (Сахалинская область, Россия) (146 км)
Погода в Ногликах (Сахалинская область, Россия) (154 км)
Погода в Литке (Хабаровский край, Россия) (154 км)

Пояснения к столбцам:

Ветер - указаны скорость ветра в м/с - средняя за 10 мин, порывы в срок и между сроками (в фигурных скобках) и направление, откуда дует ветер: С - северный, СВ - северо-восточный, В - восточный, ЮВ - юго-восточный, Ю - южный, ЮЗ - юго-западный, З - западный, СЗ - северо-западный.
Видимость - горизонтальная дальность видимости в метрах или километрах. При видимости от 1 до 10 км при отсутствии осадков обычно наблюдается дымка, при ухудшении видимости до 1 км и менее - туман. В сухую погоду видимость может ухудшаться дымом, пылью или мглою.
Явления - указаны атмосферные явления, наблюдавшиеся в срок или в последний час перед сроком; фигурными скобками обозначены явления, наблюдавшиеся между сроками (за 1-3 часа до срока); квадратными скобками обозначены град или гололедные отложения с указанием их диаметра в мм.
Облачность - указаны через наклонную черту общая и нижняя облачность в баллах и высота нижней границы облаков в метрах; квадратными скобками обозначены формы облаков: Ci - перистые, Cs - перисто-слоистые, Cc - перисто-кучевые, Ac - высококучевые, As - высокослоистые, Sc - слоисто-кучевые, Ns - слоисто-дождевые, Cu - кучевые, Cb - кучево-дождевые. Подробнее классификацию облаков см. в Атласе облаков (PDF).
T - Температура воздуха - температура, измеренная на высоте 2 м над землей.
Td - Температура точки росы - температура, при понижении до которой содержащийся в воздухе водяной пар достигнет насыщения.
f - Относительная влажность воздуха - влажноcть воздуха, измеренная на высоте 2 м над землей.
Te - Эффективная температура - температура, которую ощущает одетый по сезону человек в тени. Характеристика душности погоды. При расчете учитывается влияние влажности воздуха и скорости ветра на теплоощущения человека.
Tes - Эффективная температура на солнце - температура, которую ощущает человек, с поправкой на солнечный нагрев. Характеристика знойности погоды. Зависит от высоты солнца над горизонтом, облачности и скорости ветра. Ночью, в пасмурную погоду, а также при ветре 12 м/с и более поправка равна нулю.
P - Атмосферное давление - приведенное к уровню моря атмосферное давление.
Po - Атмосферное давление - измеренное на уровне метеостанции атмосферное давление.
Tmin - Минимальная температура - минимум температуры воздуха на высоте 2 м над землей.
Tmax - Максимальная температура - максимум температуры воздуха на высоте 2 м над землей.
R - Количество осадков - Количество выпавших осадков за период времени, мм. При наведении курсора мыши на число - период времени, за который выпало указанное количество осадков.
R24 - Количество осадков - Количество выпавших осадков за 24 часа, мм.
S - Снежный покров - Высота снежного покрова, см. При наведении курсора мыши на число - состояние снежного покрова и степень покрытия местности в баллах.